EW4312 Weather Reports


time (UTC)temp
C
wind
direction
speed
KPH
gust
KPH
rain 1hr
cm
rain 24hr
cm
rain mn
cm
humidity
%
barometer
mb
20260507070105 16 200 1.6 9.7 0.00 0.00 0.00 48 1009.7
20260507064556 17 0 0.0 8.0 0.00 0.00 0.00 47 1009.5
20260507063057 17 240 3.2 9.7 0.00 0.00 0.00 46 1009.4
20260507061555 17 0 1.6 9.7 0.00 0.00 0.00 47 1009.1
20260507054609 17 245 0.0 0.0 0.00 0.00 0.00 49 1009.2
20260507053104 17 0 0.0 4.8 0.00 0.00 0.00 48 1009.4
20260507051558 18 0 0.0 0.0 0.00 0.00 0.00 46 1009.2
20260507050059 19 243 0.0 11.3 0.00 0.00 0.00 43 1009.1
20260507044558 20 270 4.8 14.5 0.00 0.00 0.00 42 1009.2
20260507043053 20 0 0.0 12.9 0.00 0.00 0.00 41 1009.2
20260507041602 20 265 9.7 22.5 0.00 0.00 0.00 39 1009.1
20260507040055 21 241 9.7 17.7 0.00 0.00 0.00 40 1009.1
20260507034553 21 200 1.6 17.7 0.00 0.00 0.00 44 1008.8
20260507033056 21 216 3.2 14.5 0.00 0.00 0.00 46 1008.5
20260507031553 21 230 0.0 9.7 0.00 0.00 0.00 47 1008.5
20260507030053 22 0 4.8 12.9 0.00 0.00 0.00 46 1008.7
20260507024556 22 191 1.6 12.9 0.00 0.00 0.00 44 1008.7
20260507023056 23 175 3.2 16.1 0.00 0.00 0.00 44 1008.7
20260507021618 23 169 3.2 16.1 0.00 0.00 0.00 42 1008.9
20260507020112 23 144 3.2 9.7 0.00 0.00 0.00 41 1009.1
20260507014621 23 205 1.6 6.4 0.00 0.00 0.00 40 1009.1
20260507013053 23 0 1.6 11.3 0.00 0.00 0.00 39 1009.4
20260507011605 23 171 4.8 19.3 0.00 0.00 0.00 38 1009.5
20260507010054 23 178 6.4 14.5 0.00 0.00 0.00 38 1009.6
20260507004554 24 190 6.4 22.5 0.00 0.00 0.00 37 1009.6
20260507003057 24 224 4.8 14.5 0.00 0.00 0.00 37 1009.7
20260507001602 24 275 6.4 19.3 0.00 0.00 0.00 37 1009.7
20260507000121 24 258 4.8 22.5 0.00 0.00 0.00 38 1009.7
20260506234615 24 242 9.7 29.0 0.00 0.00 0.00 38 1009.8
20260506233056 25 227 6.4 17.7 0.00 0.00 0.00 37 1009.9
20260506231553 25 221 3.2 17.7 0.00 0.00 0.00 36 1010.0
20260506230103 25 274 8.0 20.9 0.00 0.00 0.00 35 1010.2
20260506224556 25 0 4.8 20.9 0.00 0.00 0.00 38 1010.3
20260506223053 25 240 11.3 22.5 0.00 0.00 0.00 40 1010.7
20260506221600 25 225 3.2 22.5 0.00 0.00 0.00 41 1010.5
20260506220056 25 234 9.7 22.5 0.00 0.00 0.00 39 1010.7
20260506214600 25 263 6.4 20.9 0.00 0.00 0.00 39 1010.8
20260506213059 25 290 1.6 14.5 0.00 0.00 0.00 43 1010.9
20260506211556 25 276 3.2 17.7 0.00 0.00 0.00 44 1011.0
20260506210055 24 0 0.0 12.9 0.00 0.00 0.00 46 1011.1
20260506204551 23 263 1.6 12.9 0.00 0.00 0.00 45 1011.5
20260506203052 23 276 8.0 17.7 0.00 0.00 0.00 44 1011.7
20260506201553 23 266 1.6 12.9 0.00 0.00 0.00 45 1011.8
20260506200051 23 252 4.8 17.7 0.00 0.00 0.00 47 1011.8
20260506194554 23 153 4.8 17.7 0.00 0.00 0.00 47 1011.8
20260506193055 22 0 8.0 19.3 0.00 0.00 0.00 46 1012.1
20260506191601 22 130 0.0 14.5 0.00 0.00 0.00 50 1012.3
20260506190054 22 238 3.2 14.5 0.00 0.00 0.00 48 1012.5
20260506184600 22 0 1.6 16.1 0.00 0.00 0.00 48 1012.5
20260506183105 21 0 1.6 17.7 0.00 0.00 0.00 49 1012.4
20260506181606 21 0 3.2 12.9 0.00 0.00 0.00 48 1012.6
20260506180052 21 208 4.8 14.5 0.00 0.00 0.00 50 1012.5
20260506174556 20 223 0.0 8.0 0.00 0.00 0.00 49 1012.6
20260506173126 20 0 1.6 9.7 0.00 0.00 0.00 50 1012.9
20260506171557 19 82 1.6 8.0 0.00 0.00 0.00 46 1013.0
20260506170107 18 0 1.6 12.9 0.00 0.00 0.00 49 1013.2
20260506164556 18 0 0.0 9.7 0.00 0.00 0.00 48 1013.3
20260506163059 17 150 4.8 9.7 0.00 0.00 0.00 47 1013.4
20260506161557 17 108 1.6 8.0 0.00 0.00 0.00 44 1013.3
20260506160058 17 0 0.0 6.4 0.00 0.00 0.00 45 1013.4
20260506154622 16 67 3.2 12.9 0.00 0.00 0.00 45 1013.3
20260506153054 16 105 1.6 6.4 0.00 0.00 0.00 47 1013.3
20260506151558 15 0 0.0 0.0 0.00 0.00 0.00 49 1013.5
20260506150055 14 0 0.0 0.0 0.00 0.00 0.00 52 1013.5
20260506144559 13 0 0.0 0.0 0.00 0.00 0.00 54 1013.5
20260506143052 12 0 0.0 0.0 0.00 0.00 0.00 58 1013.5
20260506141600 11 0 0.0 0.0 0.00 0.00 0.00 62 1013.5
20260506140054 11 0 0.0 0.0 0.00 0.00 0.00 65 1013.5
20260506134554 10 0 0.0 0.0 0.00 0.00 0.00 74 1013.4
20260506133109 8 0 0.0 0.0 0.00 0.00 0.00 79 1013.2
20260506131554 7 0 0.0 0.0 0.00 0.00 0.00 81 1013.1
20260506130119 6 0 0.0 0.0 0.00 0.00 0.00 81 1013.2
20260506124554 6 0 0.0 0.0 0.00 0.00 0.00 81 1012.9
20260506123053 6 0 0.0 0.0 0.00 0.00 0.00 81 1012.8
20260506121553 6 0 0.0 0.0 0.00 0.00 0.00 81 1012.6
20260506120057 6 0 0.0 0.0 0.00 0.00 0.00 80 1012.5
20260506114604 6 0 0.0 0.0 0.00 0.00 0.00 80 1012.4
20260506113056 6 0 0.0 0.0 0.00 0.00 0.00 80 1012.6
20260506111553 7 0 0.0 0.0 0.00 0.00 0.00 79 1012.4
20260506110057 7 0 0.0 0.0 0.00 0.00 0.00 78 1012.5
20260506104616 7 0 0.0 0.0 0.00 0.00 0.00 78 1012.5
20260506103053 7 0 0.0 0.0 0.00 0.00 0.00 77 1012.4
20260506101555 8 0 0.0 0.0 0.00 0.00 0.00 77 1012.4
20260506100056 8 0 0.0 0.0 0.00 0.00 0.00 77 1012.4
20260506094553 8 0 0.0 0.0 0.00 0.00 0.00 78 1012.4
20260506093054 8 0 0.0 0.0 0.00 0.00 0.00 77 1012.3
20260506091556 8 0 0.0 0.0 0.00 0.00 0.00 76 1012.5
20260506090052 8 0 0.0 0.0 0.00 0.00 0.00 75 1012.4
20260506084555 8 0 0.0 0.0 0.00 0.00 0.00 74 1012.4
20260506083053 9 0 0.0 0.0 0.00 0.00 0.00 72 1012.4
20260506081559 10 0 0.0 0.0 0.00 0.00 0.00 69 1012.3
20260506073053 11 0 0.0 0.0 0.00 0.00 0.00 65 1012.1
20260506071619 11 0 0.0 0.0 0.00 0.00 0.00 66 1012.0